TimeEST,TemperatureF,Dew PointF,Humidity,Sea Level PressureIn,VisibilityMPH,Wind Direction,Wind SpeedMPH,Gust SpeedMPH,PrecipitationIn,Events,Conditions,WindDirDegrees,DateUTC
12:35 AM,53.1,32.4,45,30.11,10.0,SW,3.5,-,N/A,,Clear,220,2013-03-05 05:35:00
12:55 AM,53.1,32.9,46,30.12,10.0,WSW,3.5,-,N/A,,Clear,240,2013-03-05 05:55:00
1:15 AM,52.9,33.1,47,30.12,10.0,SW,4.6,-,N/A,,Clear,230,2013-03-05 06:15:00
1:35 AM,52.7,33.4,48,30.12,10.0,WSW,3.5,-,N/A,,Clear,240,2013-03-05 06:35:00
1:55 AM,52.2,33.8,50,30.13,10.0,WSW,3.5,-,N/A,,Clear,240,2013-03-05 06:55:00
2:15 AM,51.8,34.0,51,30.12,10.0,Calm,Calm,-,N/A,,Clear,0,2013-03-05 07:15:00
2:35 AM,51.1,34.7,54,30.12,10.0,Calm,Calm,-,N/A,,Clear,0,2013-03-05 07:35:00
2:55 AM,50.9,34.7,54,30.12,10.0,Calm,Calm,-,N/A,,Clear,0,2013-03-05 07:55:00
3:15 AM,50.4,35.4,57,30.12,10.0,Calm,Calm,-,N/A,,Clear,0,2013-03-05 08:15:00
3:35 AM,49.3,35.8,60,30.11,10.0,SSE,3.5,-,N/A,,Clear,150,2013-03-05 08:35:00
4:15 AM,47.7,37.2,67,30.12,10.0,Calm,Calm,-,N/A,,Clear,0,2013-03-05 09:15:00
4:35 AM,47.3,37.6,69,30.11,10.0,South,3.5,-,N/A,,Scattered Clouds,180,2013-03-05 09:35:00
4:55 AM,47.7,36.9,66,30.11,10.0,Calm,Calm,-,N/A,,Mostly Cloudy,0,2013-03-05 09:55:00
5:15 AM,48.7,37.8,66,30.11,10.0,Calm,Calm,-,N/A,,Overcast,0,2013-03-05 10:15:00
5:55 AM,49.1,38.5,67,30.12,10.0,Calm,Calm,-,N/A,,Overcast,0,2013-03-05 10:55:00
6:15 AM,49.5,38.7,66,30.12,10.0,Calm,Calm,-,N/A,,Overcast,0,2013-03-05 11:15:00
6:35 AM,50.0,38.3,64,30.12,10.0,SSW,3.5,-,N/A,,Overcast,200,2013-03-05 11:35:00
6:55 AM,50.2,38.5,64,30.12,10.0,South,3.5,-,N/A,,Overcast,190,2013-03-05 11:55:00
7:15 AM,50.7,38.1,62,30.11,10.0,SSW,4.6,-,N/A,,Overcast,200,2013-03-05 12:15:00
7:35 AM,51.1,38.3,62,30.10,10.0,South,5.8,-,N/A,,Overcast,190,2013-03-05 12:35:00
7:55 AM,51.8,38.7,61,30.10,10.0,SSW,5.8,-,N/A,,Overcast,200,2013-03-05 12:55:00
8:15 AM,52.0,40.3,64,30.12,10.0,SW,3.5,-,N/A,,Overcast,220,2013-03-05 13:15:00
8:35 AM,52.5,41.5,66,30.12,10.0,SSW,5.8,-,N/A,,Overcast,210,2013-03-05 13:35:00
8:55 AM,53.2,42.8,68,30.11,10.0,SSW,5.8,-,N/A,,Overcast,210,2013-03-05 13:55:00
9:15 AM,53.6,43.9,70,30.12,10.0,SW,4.6,-,N/A,,Overcast,220,2013-03-05 14:15:00
9:35 AM,55.0,44.8,68,30.11,10.0,SW,4.6,-,N/A,,Overcast,230,2013-03-05 14:35:00
9:55 AM,56.3,45.9,68,30.10,10.0,SW,8.1,-,N/A,,Overcast,220,2013-03-05 14:55:00
10:15 AM,57.2,46.8,68,30.09,10.0,SSW,8.1,-,N/A,,Overcast,210,2013-03-05 15:15:00
10:35 AM,57.4,47.8,70,30.09,10.0,SSW,4.6,-,N/A,Rain,Light Rain,210,2013-03-05 15:35:00
10:55 AM,59.0,48.6,68,30.08,10.0,SSW,5.8,-,N/A,,Overcast,200,2013-03-05 15:55:00
11:15 AM,60.1,49.3,67,30.08,10.0,SSW,5.8,-,N/A,,Overcast,210,2013-03-05 16:15:00
11:35 AM,60.8,49.5,66,30.07,10.0,SSW,5.8,-,N/A,,Overcast,210,2013-03-05 16:35:00
11:55 AM,62.2,50.0,64,30.06,10.0,SSW,6.9,-,N/A,,Overcast,210,2013-03-05 16:55:00
12:15 PM,62.6,50.9,66,30.05,10.0,SW,9.2,-,N/A,,Overcast,230,2013-03-05 17:15:00
12:35 PM,65.1,51.3,61,30.03,10.0,SSW,9.2,-,N/A,,Overcast,210,2013-03-05 17:35:00
12:55 PM,65.5,51.8,61,30.01,10.0,SSW,10.4,18.4,N/A,,Overcast,210,2013-03-05 17:55:00
1:15 PM,66.4,52.7,61,30.00,10.0,SW,6.9,17.3,N/A,,Overcast,230,2013-03-05 18:15:00
1:35 PM,66.2,53.4,63,29.99,10.0,SW,5.8,17.3,N/A,,Overcast,230,2013-03-05 18:35:00
1:55 PM,67.1,53.6,62,29.98,10.0,SW,5.8,17.3,N/A,,Overcast,220,2013-03-05 18:55:00
2:15 PM,67.6,54.3,62,29.96,10.0,SW,11.5,18.4,N/A,,Overcast,220,2013-03-05 19:15:00
2:35 PM,68.4,54.7,62,29.94,10.0,SSW,11.5,19.6,N/A,,Overcast,210,2013-03-05 19:35:00
2:55 PM,68.9,54.9,61,29.93,10.0,SSW,10.4,16.1,N/A,,Overcast,210,2013-03-05 19:55:00
3:15 PM,69.6,55.0,60,29.91,10.0,SW,12.7,20.7,N/A,,Overcast,220,2013-03-05 20:15:00
3:35 PM,70.2,55.4,59,29.90,10.0,SSW,13.8,19.6,N/A,,Overcast,210,2013-03-05 20:35:00
3:55 PM,70.7,55.4,58,29.89,10.0,SSW,6.9,20.7,N/A,,Overcast,210,2013-03-05 20:55:00
4:15 PM,70.0,55.4,60,29.88,10.0,SW,6.9,-,N/A,,Overcast,220,2013-03-05 21:15:00
4:35 PM,70.7,55.6,59,29.87,10.0,SSW,6.9,-,N/A,,Overcast,200,2013-03-05 21:35:00
4:55 PM,70.2,56.1,61,29.86,10.0,SSW,10.4,17.3,N/A,Rain,Light Rain,210,2013-03-05 21:55:00
5:15 PM,69.8,55.8,61,29.86,10.0,SSW,12.7,16.1,N/A,,Overcast,210,2013-03-05 22:15:00
5:35 PM,70.2,55.4,59,29.83,10.0,SSW,11.5,23.0,N/A,,Overcast,210,2013-03-05 22:35:00
5:55 PM,69.3,55.6,62,29.83,10.0,SW,10.4,24.2,N/A,,Scattered Clouds,220,2013-03-05 22:55:00
6:15 PM,68.4,55.9,64,29.82,10.0,SSW,12.7,25.3,N/A,,Scattered Clouds,210,2013-03-05 23:15:00
6:35 PM,68.0,56.3,66,29.83,10.0,SSW,13.8,23.0,N/A,,Mostly Cloudy,210,2013-03-05 23:35:00
6:55 PM,67.6,56.3,67,29.82,10.0,SSW,12.7,20.7,N/A,,Overcast,200,2013-03-05 23:55:00
7:15 PM,66.7,56.7,70,29.80,10.0,SSW,12.7,21.9,N/A,Rain,Light Rain,200,2013-03-06 00:15:00
7:35 PM,61.7,58.1,88,29.87,10.0,WNW,12.7,21.9,N/A,Rain,Rain,290,2013-03-06 00:35:00
7:55 PM,61.0,57.4,88,29.88,7.0,WNW,15.0,24.2,N/A,Rain,Rain,290,2013-03-06 00:55:00
8:15 PM,59.5,54.5,83,29.88,10.0,West,9.2,21.9,N/A,Rain,Rain,280,2013-03-06 01:15:00
8:35 PM,58.6,53.8,84,29.88,10.0,West,11.5,17.3,N/A,Rain,Light Rain,270,2013-03-06 01:35:00
8:55 PM,57.9,53.1,84,29.88,10.0,West,8.1,-,N/A,,Mostly Cloudy,270,2013-03-06 01:55:00
9:15 PM,58.1,53.1,83,29.89,10.0,West,9.2,-,N/A,,Overcast,270,2013-03-06 02:15:00
9:35 PM,58.1,53.4,84,29.90,10.0,West,6.9,-,N/A,,Overcast,280,2013-03-06 02:35:00
9:55 PM,57.6,52.0,82,29.91,10.0,WNW,11.5,23.0,N/A,,Mostly Cloudy,290,2013-03-06 02:55:00
10:15 PM,56.7,48.2,73,29.92,10.0,WNW,16.1,23.0,N/A,,Scattered Clouds,300,2013-03-06 03:15:00
10:35 PM,55.4,44.8,67,29.93,10.0,WNW,16.1,27.6,N/A,,Clear,300,2013-03-06 03:35:00
10:55 PM,53.4,41.9,65,29.94,10.0,WNW,9.2,26.5,N/A,,Clear,300,2013-03-06 03:55:00
11:15 PM,52.0,41.0,66,29.94,10.0,WNW,12.7,20.7,N/A,,Clear,300,2013-03-06 04:15:00
11:35 PM,50.7,39.0,64,29.95,10.0,NW,13.8,25.3,N/A,,Clear,310,2013-03-06 04:35:00
11:55 PM,49.1,36.9,63,29.96,10.0,WNW,13.8,23.0,N/A,,Clear,300,2013-03-06 04:55:00